Dewpoint
56 56 55 55 54 54 54 54 54 53 54 54 54 54 54 53 53 54 54 54 55 56 58 57 57 57 48 30 25 41 60 56 45 40 35 34 32 31 27 25 28 31 30 29 31 31 31
55 54 54 54 53 53 53 53 53 53 53 53 53 53 52 52 52 53 53 53 53 56 58 57 56 55 40 19 33 51 44 41 40 36 34 34 30 31 28 27 26 28 29 29 31 30 31
53 53 53 53 53 53 53 53 53 52 52 53 53 52 52 52 52 51 52 52 53 56 57 56 56 51 40 23 38 44 38 35 37 36 32 34 33 32 31 29 31 32 29 29 29 30 30
52 52 52 52 52 52 52 52 52 52 52 52 52 52 51 51 51 52 53 53 55 56 55 54 56 48 22 32 39 37 36 36 37 36 35 36 36 33 32 32 26 27 28 22 24 31 31
52 52 51 51 51 51 51 51 51 51 51 52 51 51 50 50 52 53 52 54 56 53 53 55 46 35 24 41 36 37 35 33 35 35 37 33 35 32 33 25 17 20 11 17 16 28 30
52 51 51 51 51 51 51 51 51 51 51 51 51 50 50 50 52 52 53 55 49 51 53 52 38 34 31 28 35 35 35 35 33 34 33 33 31 29 27 19 10 11 15 18 17 23 30
50 49 51 51 51 51 52 52 52 52 51 51 51 51 51 52 52 52 51 38 38 35 37 28 30 29 28 32 36 35 35 33 33 31 24 29 23 20 22 22 15 10 10 12 14 20 25
49 49 49 48 50 50 50 51 51 51 51 51 52 52 51 52 52 52 41 38 39 39 37 39 38 35 33 32 28 32 34 29 29 25 25 26 21 18 21 24 24 22 20 20 21 22 23
48 48 48 48 48 49 50 50 50 50 50 51 52 52 52 51 51 46 41 40 44 43 36 34 35 33 31 32 29 29 31 28 26 24 24 21 21 23 21 22 22 23 20 18 15 21 23
48 47 47 47 48 47 47 48 50 49 49 50 51 51 51 51 37 43 40 46 47 42 28 25 29 31 32 32 27 32 34 28 28 22 23 23 23 20 21 19 19 17 19 20 19 19 15
47 47 47 46 46 46 47 47 48 49 49 51 50 50 50 50 43 41 42 46 44 36 13 25 27 32 33 26 28 30 33 31 25 24 22 19 22 22 21 19 19 16 21 21 22 20 17
47 47 47 47 47 47 47 47 48 49 49 50 50 50 50 44 43 43 46 45 36 19 11 23 28 28 27 28 28 30 29 30 29 26 25 22 26 23 20 21 21 20 17 19 19 16 16
49 48 48 48 48 47 47 47 47 47 48 49 49 50 48 47 38 44 45 34 12 13 16 21 27 28 28 26 26 27 26 25 24 21 20 22 22 25 23 20 23 19 19 18 15 15 14
48 48 48 49 49 48 48 48 47 46 46 49 49 49 44 43 45 46 38 26 4 9 14 29 28 27 24 26 24 26 25 23 24 20 20 21 20 22 23 21 20 18 19 18 11 13 12
48 48 47 48 48 49 48 48 47 47 47 48 48 41 40 41 44 42 37 23 6 8 26 27 23 23 23 26 26 26 24 23 22 22 20 19 19 22 23 22 21 19 18 21 16 15 15
48 48 47 48 48 47 48 48 47 47 47 47 43 39 38 43 43 39 32 26 24 25 30 28 21 20 20 23 24 25 24 24 25 25 26 24 21 25 24 23 23 20 20 18 19 15 13
47 46 46 46 47 48 48 48 47 47 46 46 36 34 34 43 42 36 27 25 28 30 31 27 25 22 24 24 25 24 23 25 27 28 30 28 25 23 25 22 20 21 20 20 20 19 15
44 45 45 45 47 49 48 47 47 47 47 41 35 28 33 42 33 30 27 29 33 31 32 31 30 29 27 25 24 23 22 23 29 29 26 29 25 22 23 25 27 23 21 20 20 19 21
45 44 44 45 47 48 46 46 47 47 46 42 33 32 36 38 23 23 28 30 32 30 29 29 28 30 30 28 25 26 30 31 30 30 28 30 26 19 14 19 24 24 29 30 28 27 21
45 45 45 45 47 47 47 45 46 47 47 43 36 28 29 37 32 29 28 27 26 28 29 30 29 29 28 25 29 27 27 31 32 34 35 35 28 20 14 14 21 19 23 23 22 19 16
45 45 45 44 45 46 46 45 45 46 47 44 35 30 29 21 25 27 27 26 27 26 29 30 28 29 27 23 23 23 28 30 31 34 34 34 25 25 24 24 26 24 22 23 22 21 18
44 44 44 43 43 44 44 45 46 46 46 41 34 33 35 29 28 27 25 20 24 24 25 23 24 24 27 25 22 19 27 28 27 29 31 32 24 24 20 23 23 22 22 23 23 22 22
44 45 45 44 44 44 44 45 44 45 45 40 39 38 35 30 27 26 24 24 26 26 26 26 25 26 27 27 29 34 33 31 30 28 27 28 26 22 17 18 19 16 16 19 17 11 12
45 45 45 45 45 45 44 44 43 44 44 42 39 37 31 26 28 26 26 25 24 25 27 28 31 29 28 34 35 32 30 29 30 30 31 27 24 23 18 17 10 12 17 13 10 9 11
45 45 45 44 44 45 44 44 42 43 43 42 42 37 31 27 29 28 28 26 26 27 28 27 28 34 35 32 27 23 14 14 14 24 26 30 26 20 15 13 12 14 13 12 8 5 8
44 43 43 43 44 44 44 44 43 43 43 41 40 41 34 28 27 29 28 27 26 26 26 27 30 33 34 29 25 18 15 13 9 12 24 25 27 22 18 13 8 4 12 14 13 2 9
42 42 42 43 44 44 44 44 43 43 43 41 39 41 37 29 32 32 28 25 30 28 27 21 25 30 33 27 23 20 16 16 12 8 15 18 20 16 15 15 3 5 7 14 7 1 9
44 44 43 43 43 43 43 43 42 42 41 41 39 42 38 32 33 34 34 31 31 31 24 24 28 29 27 22 21 16 18 17 13 12 11 13 10 10 13 14 6 3 9 6 4 8 9
43 42 42 42 42 42 41 40 40 40 42 42 39 41 41 33 33 35 33 32 31 31 30 32 26 27 27 24 22 21 19 15 13 13 6 7 0 2 -1 -2 5 6 4 7 8 7 7
Lifted_Index
10 10 11 11 11 12 12 12 12 12 12 12 12 12 12 13 13 13 13 13 12 11 10 10 10 11 11 10 10 10 10 11 12 13 13 12 11 10 9 9 9 9 9 9 9 9 9
11 11 11 12 12 12 12 12 12 12 12 12 12 13 13 13 13 13 13 13 13 11 10 10 11 12 12 11 11 11 12 12 13 13 13 12 12 11 10 10 10 9 9 9 9 9 9
12 12 12 12 12 12 12 13 13 13 13 13 13 13 14 14 14 14 14 14 13 12 11 11 11 12 12 12 12 13 13 14 14 13 13 13 13 12 11 11 10 10 8 8 7 8 8
13 13 13 13 13 13 13 13 13 13 13 13 14 14 14 15 14 14 14 14 13 12 11 11 12 12 12 13 13 13 13 14 13 13 13 13 13 12 11 11 10 9 8 7 7 7 8
13 13 13 13 14 14 14 14 14 14 14 14 14 15 15 15 15 15 14 14 13 13 12 12 13 13 12 13 13 13 13 13 13 13 13 13 12 12 10 9 8 7 7 6 6 7 8
13 13 13 13 13 13 13 14 14 14 14 14 15 15 16 16 15 15 15 14 14 13 12 12 13 12 12 12 13 13 13 13 12 12 11 11 11 10 8 7 6 6 6 6 6 7 7
14 14 13 13 13 13 13 13 13 14 14 14 15 15 15 16 16 15 15 14 14 13 12 12 12 12 13 13 13 13 13 12 11 10 10 10 9 8 7 7 7 7 7 7 7 7 7
15 14 14 14 14 13 13 13 13 13 14 14 14 15 15 15 16 16 15 15 14 13 12 12 12 13 13 13 12 12 12 12 11 10 9 9 8 8 8 7 7 7 6 7 7 8 8
15 15 15 15 15 15 14 14 14 14 14 14 14 14 15 15 16 17 16 15 14 13 12 11 12 13 13 13 12 12 12 12 10 9 9 9 9 9 9 8 7 7 6 7 7 7 7
16 16 16 16 16 16 16 15 15 14 14 14 14 14 15 16 17 17 16 15 14 12 10 9 11 12 12 12 11 12 12 11 10 9 9 9 9 9 8 8 7 7 7 7 7 7 6
17 17 17 17 17 17 16 16 15 15 15 15 15 15 15 16 17 17 16 15 14 10 7 8 10 11 11 11 11 11 12 11 10 9 9 8 9 9 8 8 8 7 7 7 7 6 5
17 17 17 17 17 17 16 16 16 16 16 15 15 15 16 17 17 17 16 14 12 8 6 7 10 10 10 10 10 11 11 11 10 9 8 8 8 8 8 8 7 7 7 6 5 4 4
16 16 16 16 16 16 17 17 17 17 17 16 16 16 17 17 17 17 15 13 9 7 7 8 9 10 10 10 10 10 9 9 8 7 7 7 7 7 7 7 7 6 5 4 2 2 2
16 16 16 16 16 16 17 17 17 17 17 17 17 18 18 18 17 16 14 11 8 7 8 9 9 9 9 9 9 9 9 8 7 7 6 5 5 7 7 7 7 6 5 3 2 2 2
17 16 16 16 16 16 17 17 17 17 18 18 18 18 18 17 16 15 13 10 8 8 10 10 9 8 8 8 9 9 8 8 8 7 6 5 5 7 7 7 7 6 5 4 3 2 2
17 17 17 17 16 16 16 17 17 17 18 18 19 19 18 16 15 14 12 10 9 11 11 10 9 8 7 7 8 8 8 8 8 7 6 5 5 6 7 6 6 6 5 5 4 3 1
17 17 17 17 17 16 16 16 17 17 18 19 19 18 17 16 15 14 12 11 12 12 11 10 9 8 7 7 7 7 7 8 7 7 6 6 6 6 6 6 6 5 5 5 4 3 2
17 17 17 17 17 16 16 16 16 17 17 18 18 18 17 16 15 14 13 13 13 12 10 9 8 8 7 7 7 7 7 7 7 7 6 6 6 6 7 7 6 6 5 4 4 3 3
17 17 17 17 17 17 17 17 16 16 17 18 18 18 18 16 15 14 14 13 12 11 10 8 8 7 7 7 7 7 7 6 6 6 6 6 6 6 6 6 6 5 5 4 3 2 2
17 17 17 17 17 17 17 17 16 16 16 17 17 17 17 16 15 14 13 12 11 10 9 8 7 7 6 7 7 7 6 6 6 5 5 5 5 5 5 5 4 4 3 3 2 1 1
17 17 17 17 17 17 17 16 16 15 15 15 16 16 15 15 14 12 11 10 9 8 8 7 7 7 7 7 7 7 6 5 5 5 4 3 3 3 3 3 3 3 2 2 2 1 1
17 17 17 17 17 17 17 16 15 15 14 14 14 13 13 12 11 10 9 8 8 7 7 7 6 6 6 6 5 5 4 4 4 4 3 2 1 2 2 2 2 2 2 2 1 1 1
17 17 17 17 17 16 16 16 15 14 14 13 12 11 9 9 8 7 6 6 5 4 4 4 4 4 3 3 3 2 2 2 2 2 2 1 1 1 1 1 1 2 2 2 1 1 1
16 16 16 16 16 15 15 15 15 14 13 11 10 7 5 5 4 3 2 2 2 2 2 2 1 1 1 1 1 1 1 1 1 1 1 1 1 1 1 0 1 1 2 1 1 1 1
15 15 15 15 15 15 14 14 13 12 10 9 6 4 2 2 1 1 1 0 1 1 0 1 1 1 1 1 1 0 0 0 1 1 1 1 1 0 0 0 1 1 1 1 1 1 1
15 15 15 15 14 13 13 12 11 9 7 5 3 2 1 1 1 1 0 0 1 1 1 1 1 1 1 1 1 0 0 0 1 1 1 0 0 0 0 0 0 1 2 2 1 1 2
15 15 14 13 12 11 10 9 7 5 3 2 1 0 1 1 1 1 1 1 1 1 1 1 1 1 1 1 0 0 0 0 1 1 0 0 0 0 0 0 1 2 3 3 2 3 4
14 13 12 11 10 9 7 6 4 3 1 1 0 0 0 1 1 1 1 1 1 1 1 1 1 1 1 1 1 0 0 0 1 1 0 0 0 1 0 1 2 4 5 5 5 6 7
13 12 11 9 8 7 5 4 3 2 1 0 0 1 1 0 1 1 1 1 1 1 1 1 1 1 1 1 1 1 1 1 1 1 1 1 1 1 1 1 4 6 7 7 8 8 8